• In Deutschland
  • Länderverzeichnis
  • Für 7 Tage
  • Wassertemperatur
  • Satellitenkarten
  • Wetterkarte
  • Widgets
  • user-avatar
    Anmelden

    Stündliche Wetter Dongyuan

    Heute, 19 September, Mittwoch

    Zeit Temperatur Niederschläge Wind Luftdruck Luftfeuchtigkeit
    00:00 +28°C° 0 mm 3 m/S 758 mmHg 89%
    01:00 +28°C° 0 mm 3 m/S 758 mmHg 90%
    02:00 +28°C° 0 mm 3 m/S 758 mmHg 90%
    03:00 +27°C° 0 mm 3 m/S 758 mmHg 90%
    04:00 +27°C° 0 mm 3 m/S 758 mmHg 91%
    05:00 +27°C° 0 mm 3 m/S 758 mmHg 91%
    06:00 +28°C° 0 mm 3 m/S 758 mmHg 86%
    07:00 +29°C° 0 mm 3 m/S 758 mmHg 82%
    08:00 +30°C° 0 mm 3 m/S 758 mmHg 77%
    09:00 +33°C° 0 mm 3 m/S 758 mmHg 69%
    10:00 +34°C° 0 mm 4 m/S 758 mmHg 61%
    11:00 +36°C° 0 mm 4 m/S 758 mmHg 52%
    12:00 +36°C° 0 mm 4 m/S 757 mmHg 52%
    13:00 +37°C° 0 mm 5 m/S 757 mmHg 52%
    14:00 +37°C° 0 mm 5 m/S 756 mmHg 52%
    15:00 +36°C° 0 mm 5 m/S 756 mmHg 58%
    16:00 +35°C° 0 mm 5 m/S 756 mmHg 64%
    17:00 +34°C° 0 mm 5 m/S 755 mmHg 70%
    18:00 +32°C° 0 mm 5 m/S 756 mmHg 75%
    19:00 +30°C° 0 mm 4 m/S 756 mmHg 81%
    20:00 +28°C° 0 mm 4 m/S 756 mmHg 86%
    21:00 +28°C° 0 mm 4 m/S 756 mmHg 88%
    22:00 +28°C° 0 mm 3 m/S 756 mmHg 89%
    23:00 +27°C° 0 mm 3 m/S 757 mmHg 90%

    Morgen, 20 September, Donnerstag

    Zeit Temperatur Niederschläge Wind Luftdruck Luftfeuchtigkeit
    00:00 +27°C° 0 mm 3 m/S 756 mmHg 91%
    01:00 +27°C° 0 mm 3 m/S 756 mmHg 91%
    02:00 +26°C° 0 mm 2 m/S 756 mmHg 92%
    03:00 +26°C° 0 mm 2 m/S 756 mmHg 92%
    04:00 +26°C° 0 mm 2 m/S 755 mmHg 92%
    05:00 +26°C° 0 mm 1 m/S 755 mmHg 91%
    06:00 +27°C° 0 mm 1 m/S 756 mmHg 86%
    07:00 +28°C° 0 mm 1 m/S 756 mmHg 80%
    08:00 +30°C° 0 mm 1 m/S 756 mmHg 75%
    09:00 +32°C° 0 mm 1 m/S 756 mmHg 66%
    10:00 +33°C° 0 mm 1 m/S 756 mmHg 57%
    11:00 +35°C° 0 mm 1 m/S 756 mmHg 48%
    12:00 +36°C° 0 mm 1 m/S 756 mmHg 47%
    13:00 +37°C° 0 mm 2 m/S 755 mmHg 46%
    14:00 +37°C° 0 mm 2 m/S 754 mmHg 45%
    15:00 +36°C° 0 mm 2 m/S 754 mmHg 52%
    16:00 +35°C° 0 mm 2 m/S 754 mmHg 59%
    17:00 +34°C° 0 mm 2 m/S 754 mmHg 66%
    18:00 +31°C° 0 mm 2 m/S 755 mmHg 72%
    19:00 +30°C° 0 mm 2 m/S 755 mmHg 78%
    20:00 +28°C° 0 mm 1 m/S 756 mmHg 84%
    21:00 +28°C° 0 mm 1 m/S 756 mmHg 86%
    22:00 +28°C° 0 mm 1 m/S 756 mmHg 87%
    23:00 +27°C° 0 mm 1 m/S 756 mmHg 89%

    übermorgen, 21 September, Freitag

    Zeit Temperatur Niederschläge Wind Luftdruck Luftfeuchtigkeit
    00:00 +27°C° 0 mm 1 m/S 756 mmHg 90%
    01:00 +25°C° 0 mm 0 m/S 756 mmHg 90%
    02:00 +25°C° 0 mm 0 m/S 756 mmHg 91%
    03:00 +24°C° 0 mm 0 m/S 756 mmHg 91%
    04:00 +24°C° 0 mm 0 m/S 756 mmHg 92%
    05:00 +24°C° 0 mm 0 m/S 756 mmHg 92%
    06:00 +25°C° 0 mm 0 m/S 756 mmHg 87%
    07:00 +26°C° 0 mm 0 m/S 756 mmHg 82%
    08:00 +28°C° 0 mm 0 m/S 757 mmHg 77%
    09:00 +31°C° 0 mm 1 m/S 757 mmHg 70%
    10:00 +33°C° 0 mm 1 m/S 757 mmHg 63%
    11:00 +35°C° 0 mm 2 m/S 757 mmHg 56%
    12:00 +36°C° 0 mm 2 m/S 756 mmHg 55%
    13:00 +36°C° 0 mm 3 m/S 756 mmHg 54%
    14:00 +37°C° 0 mm 4 m/S 755 mmHg 53%
    15:00 +36°C° 0 mm 4 m/S 755 mmHg 58%
    16:00 +35°C° 0 mm 4 m/S 755 mmHg 63%
    17:00 +34°C° 0 mm 4 m/S 755 mmHg 69%
    18:00 +33°C° 0 mm 3 m/S 756 mmHg 73%
    19:00 +30°C° 0 mm 3 m/S 756 mmHg 78%
    20:00 +29°C° 0 mm 3 m/S 757 mmHg 82%
    21:00 +29°C° 0 mm 2 m/S 757 mmHg 83%
    22:00 +28°C° 0 mm 2 m/S 757 mmHg 84%
    23:00 +28°C° 0 mm 2 m/S 758 mmHg 85%

    22 September, Samstag

    Zeit Temperatur Niederschläge Wind Luftdruck Luftfeuchtigkeit
    00:00 +28°C° 0 mm 2 m/S 757 mmHg 85%
    01:00 +28°C° 0 mm 2 m/S 757 mmHg 86%
    02:00 +28°C° 0 mm 2 m/S 757 mmHg 87%
    03:00 +28°C° 0 mm 2 m/S 757 mmHg 87%
    04:00 +27°C° 0 mm 2 m/S 757 mmHg 88%
    05:00 +27°C° 0 mm 1 m/S 757 mmHg 89%
    06:00 +28°C° 0 mm 1 m/S 757 mmHg 85%
    07:00 +29°C° 0 mm 1 m/S 758 mmHg 82%
    08:00 +30°C° 0 mm 1 m/S 758 mmHg 78%
    09:00 +31°C° 0.1 mm 1 m/S 758 mmHg 74%
    10:00 +34°C° 0.1 mm 2 m/S 758 mmHg 69%
    11:00 +35°C° 0.1 mm 2 m/S 758 mmHg 64%
    12:00 +35°C° 0.3 mm 2 m/S 757 mmHg 65%
    13:00 +35°C° 0.3 mm 3 m/S 757 mmHg 65%
    14:00 +35°C° 0.3 mm 3 m/S 756 mmHg 66%
    15:00 +34°C° 0.2 mm 3 m/S 756 mmHg 69%
    16:00 +34°C° 0.2 mm 2 m/S 756 mmHg 72%
    17:00 +32°C° 0.2 mm 2 m/S 757 mmHg 74%
    18:00 +31°C° 0.5 mm 2 m/S 757 mmHg 78%
    19:00 +30°C° 0.5 mm 2 m/S 758 mmHg 82%
    20:00 +28°C° 0.5 mm 1 m/S 758 mmHg 86%
    21:00 +28°C° 0.3 mm 2 m/S 758 mmHg 87%
    22:00 +28°C° 0.3 mm 2 m/S 759 mmHg 89%
    23:00 +27°C° 0.3 mm 2 m/S 759 mmHg 90%

    23 September, Sonntag

    Zeit Temperatur Niederschläge Wind Luftdruck Luftfeuchtigkeit
    00:00 +27°C° 0 mm 2 m/S 758 mmHg 91%
    01:00 +27°C° 0 mm 2 m/S 758 mmHg 91%
    02:00 +27°C° 0 mm 1 m/S 758 mmHg 92%
    03:00 +27°C° 0 mm 1 m/S 758 mmHg 91%
    04:00 +26°C° 0 mm 2 m/S 758 mmHg 91%
    05:00 +26°C° 0 mm 2 m/S 758 mmHg 91%
    06:00 +27°C° 0 mm 1 m/S 758 mmHg 87%
    07:00 +28°C° 0 mm 1 m/S 759 mmHg 82%
    08:00 +29°C° 0 mm 1 m/S 759 mmHg 78%
    09:00 +31°C° 0 mm 1 m/S 759 mmHg 72%
    10:00 +32°C° 0 mm 2 m/S 758 mmHg 66%
    11:00 +35°C° 0 mm 2 m/S 758 mmHg 59%
    12:00 +34°C° 0.3 mm 2 m/S 757 mmHg 61%
    13:00 +34°C° 0.3 mm 3 m/S 756 mmHg 63%
    14:00 +34°C° 0.3 mm 3 m/S 756 mmHg 65%
    15:00 +33°C° 0.4 mm 3 m/S 756 mmHg 69%
    16:00 +31°C° 0.4 mm 3 m/S 756 mmHg 74%
    17:00 +31°C° 0.4 mm 2 m/S 756 mmHg 78%
    18:00 +30°C° 1.2 mm 2 m/S 757 mmHg 81%
    19:00 +29°C° 1.2 mm 2 m/S 757 mmHg 83%
    20:00 +28°C° 1.2 mm 2 m/S 758 mmHg 86%
    21:00 +28°C° 1.2 mm 3 m/S 758 mmHg 87%
    22:00 +27°C° 1.2 mm 3 m/S 758 mmHg 88%
    23:00 +27°C° 1.2 mm 4 m/S 758 mmHg 90%

    24 September, Montag

    Zeit Temperatur Niederschläge Wind Luftdruck Luftfeuchtigkeit
    00:00 +27°C° 0.4 mm 4 m/S 758 mmHg 90%
    01:00 +27°C° 0.4 mm 5 m/S 757 mmHg 91%
    02:00 +26°C° 0.4 mm 6 m/S 757 mmHg 92%
    03:00 +26°C° 0.1 mm 6 m/S 757 mmHg 92%
    04:00 +26°C° 0.1 mm 6 m/S 757 mmHg 92%
    05:00 +26°C° 0.1 mm 6 m/S 757 mmHg 91%
    06:00 +26°C° 0.3 mm 6 m/S 757 mmHg 89%
    07:00 +27°C° 0.3 mm 6 m/S 758 mmHg 86%
    08:00 +27°C° 0.3 mm 6 m/S 758 mmHg 83%
    09:00 +28°C° 0.1 mm 6 m/S 758 mmHg 80%
    10:00 +29°C° 0.1 mm 6 m/S 758 mmHg 77%
    11:00 +29°C° 0.1 mm 6 m/S 758 mmHg 73%
    12:00 +29°C° 0.1 mm 7 m/S 757 mmHg 73%
    13:00 +29°C° 0.1 mm 7 m/S 757 mmHg 73%
    14:00 +29°C° 0.1 mm 8 m/S 756 mmHg 73%
    15:00 +29°C° 0.1 mm 8 m/S 756 mmHg 75%
    16:00 +28°C° 0.1 mm 8 m/S 756 mmHg 77%
    17:00 +28°C° 0.1 mm 8 m/S 757 mmHg 79%
    18:00 +27°C° 0 mm 8 m/S 757 mmHg 80%
    19:00 +26°C° 0 mm 8 m/S 757 mmHg 82%
    20:00 +24°C° 0 mm 8 m/S 758 mmHg 83%
    21:00 +24°C° 0 mm 8 m/S 758 mmHg 83%
    22:00 +24°C° 0 mm 8 m/S 758 mmHg 83%
    23:00 +24°C° 0 mm 7 m/S 758 mmHg 83%
    Mehr zeigen